#timestamp,LO_Frequency,Hit,StdDev 
1513440015.7,286047004.2,N
1513440035.5,286047003.8,N
1513440055.4,286046999.6,N
1513440075.2,286047002.4,N
1513440095.0,286047001.9,N
1513440095.9,286047001.9,N
1513440115.8,286047001.7,N
1513440135.6,286046998.5,N
1513440155.4,286046998.5,N
1513440175.3,286046998.9,N
1513440195.1,286046996.6,N
1513440196.0,286046996.6,N
1513440215.8,286046997.4,N
1513440235.7,286046999.3,N
1513440255.5,286046993.3,N
1513440275.3,286046994.7,N
1513440295.1,286046993.1,N
1513440315.9,286046996.4,N
1513440335.7,286046994.2,N
1513440355.5,286046994.3,N
1513440375.4,286046997.6,N
1513440395.2,286046997.6,N
1513440415.0,286046994.9,N
1513440415.9,286046994.9,N
1513440435.8,286046997.0,N
1513440455.6,286046997.3,N
1513440475.4,286046995.1,N
1513440495.3,286046992.0,N
1513440515.1,286046992.5,N
1513440516.0,286046992.5,N
1513440535.8,286046992.6,N
1513440555.7,286046995.7,N
1513440575.5,286046998.0,N
1513440595.3,286046993.8,N
1513440615.2,286046997.1,N
1513440635.9,286046995.0,N
1513440655.7,286046997.7,N
1513440675.5,286046997.9,N
1513440695.4,286046995.4,N
1513440715.2,286046997.5,N
1513440735.0,286046999.5,N
1513440735.9,286046999.5,N
1513440755.8,286046999.9,N
1513440775.6,286047001.1,N
1513440795.4,286046998.5,N
1513440815.3,286046996.9,N
1513440835.1,286046996.8,N
1513440836.0,286046996.8,N
1513440855.8,286046996.6,N
1513440875.7,286046995.8,N
1513440895.5,286046996.0,N
1513440915.3,286046992.6,Y
1513440935.2,286046998.7,P
1513440955.9,286047001.3,N
1513440975.7,286046998.2,N
1513440995.6,286046998.4,N
1513441015.4,286046999.9,N
1513441035.2,286047003.0,N
1513441055.0,286047001.5,N
1513441055.9,286047001.5,N
1513441075.8,286046998.6,N
1513441095.6,286047001.0,N
1513441115.4,286046998.3,N
1513441135.3,286047002.8,N
1513441155.1,286047002.5,N
1513441175.8,286047000.2,N
1513441195.7,286047000.6,N
1513441215.5,286046999.6,N
1513441235.3,286047000.8,N
1513441255.2,286047005.9,Y
1513441275.9,286047004.4,P
1513441295.7,286047000.5,N
1513441315.6,286046999.4,N
1513441335.4,286046998.5,N
1513441355.2,286047001.1,N
1513441375.0,286046999.8,N
1513441376.0,286046999.8,N
1513441395.8,286047003.1,N
1513441415.6,286047007.5,Y
1513441435.5,286046998.6,P
1513441455.3,286046999.4,N
1513441475.1,286046999.4,N
1513441495.9,286046998.3,N
1513441515.7,286047001.1,N
1513441535.5,286046998.4,N
1513441555.3,286047000.0,N
1513441575.2,286046996.9,Y
1513441595.0,286046998.9,P
1513441595.9,286046998.9,P
1513441615.7,286046993.3,P
1513441635.6,286046991.9,Y
1513441655.4,286046995.3,P
1513441675.2,286046999.0,N
1513441695.1,286046997.7,N
1513441696.0,286046997.7,N
1513441715.8,286046994.0,Y
1513441735.7,286047004.0,P
1513441755.5,286047005.4,N
1513441775.3,286047007.4,N
1513441795.1,286047004.7,N
1513441815.9,286047005.0,N
1513441835.7,286047009.9,Y
1513441855.5,286047004.7,P
1513441875.4,286047001.4,P
1513441895.2,286047000.1,N
1513441915.0,286046997.8,N
1513441915.9,286046997.8,N
1513441935.8,286046997.1,N
1513441955.6,286047000.9,N
1513441975.4,286047002.4,N
1513441995.3,286047003.4,N
1513442015.1,286047002.1,N
1513442016.0,286047002.1,N
1513442035.8,286047003.9,N
1513442055.7,286047006.0,N
1513442075.5,286047002.1,N
1513442095.3,286047004.4,N
1513442115.2,286047002.3,N
1513442135.9,286047001.9,N
1513442155.7,286047001.4,N
1513442175.5,286047005.6,N
1513442195.4,286047003.4,N
1513442215.2,286047000.2,N
1513442235.0,286047001.7,N
1513442235.9,286047001.7,N
1513442255.8,286047003.8,N
1513442275.6,286047001.9,N
1513442295.4,286047007.6,Y
1513442315.3,286047003.0,P
1513442335.1,286047002.6,P
1513442355.8,286046998.3,P
1513442375.7,286047002.5,N
1513442395.5,286047000.0,N
1513442415.3,286047000.3,N
1513442435.2,286046999.0,N
1513442455.9,286046997.5,N
1513442475.7,286046993.9,Y
1513442495.6,286046994.1,P
1513442515.4,286046996.7,N
1513442535.2,286046998.1,N
1513442555.1,286047004.1,N
1513442556.0,286047004.1,N
1513442575.8,286047003.9,N
1513442595.6,286047004.4,N
1513442615.5,286047002.3,N
1513442635.3,286047003.2,N
1513442655.1,286047005.1,N
1513442675.9,286047005.7,N
1513442695.7,286047004.9,N
1513442715.5,286047009.2,N
1513442735.3,286047009.3,N
1513442755.2,286047009.5,N
1513442775.0,286047006.6,N
1513442775.9,286047006.6,N
1513442795.7,286047008.5,N
1513442815.6,286047010.7,N
1513442835.4,286047008.3,N
1513442855.2,286047011.1,N
1513442875.1,286047010.5,N
1513442876.0,286047010.5,N
1513442895.8,286047009.7,N
1513442915.6,286047009.1,N
1513442935.5,286047008.4,N
1513442955.3,286047011.0,N
1513442975.1,286047016.6,Y
1513442995.9,286047006.1,P
1513443015.7,286047004.8,P
1513443035.5,286047008.7,P
1513443055.4,286047005.4,Y
1513443075.2,286046997.3,P
1513443095.0,286046994.1,N
1513443095.9,286046994.1,N
1513443115.8,286046993.9,N
1513443135.6,286046995.7,N
1513443155.4,286046991.0,N
1513443175.3,286046991.4,N
1513443195.1,286046990.6,N
1513443196.0,286046990.6,N
1513443215.8,286046995.7,N
1513443235.6,286046997.2,N
1513443255.5,286046992.1,N
1513443275.3,286046992.4,N
1513443295.1,286046993.7,N
1513443315.9,286046994.0,N
1513443335.7,286046994.8,N
1513443355.5,286046994.2,N
1513443375.4,286046991.7,N
1513443395.2,286046989.0,Y
1513443415.0,286046995.0,P
1513443415.9,286046995.0,P
1513443435.8,286046992.2,P
1513443455.6,286046998.0,N
1513443475.4,286046993.6,Y
1513443495.3,286047001.2,P
1513443515.1,286047001.8,N
1513443516.0,286047001.8,N
1513443535.8,286047002.3,N
1513443555.7,286047005.3,N
1513443575.5,286047003.8,N
1513443595.3,286047009.4,Y
